Regional Weather Roundup
Issued by NWS Cleveland, OH

Home | Current Version | Previous Version | Graphics & Text | Print | Product List | Glossary On
Versions: 1 2 3 4 5 6 7 8 9 10 11 12 13 14 15 16 17 18 19 20 21 22 23 24 25 26 27 28 29 30 31 32 33 34 35 36 37 38 39 40 41 42 43 44 45 46 47 48 49 50
000
ASUS41 KCLE 060110
RWRCLE
OHIO REGIONAL WEATHER ROUNDUP
NATIONAL WEATHER SERVICE CLEVELAND, OH
900 PM EDT THU MAY 05 2016

NOTE: "FAIR" INDICATES FEW OR NO CLOUDS BELOW 12,000 FEET WITH NO
SIGNIFICANT WEATHER AND/OR OBSTRUCTIONS TO VISIBILITY.

OHZ001>008-015>018-024>027-034-035-043-044-060200-
   NORTHWEST OHIO

CITY           SKY/WX    TMP DP  RH WIND       PRES   REMARKS
DEFIANCE       CLEAR     60  37  42 N8        29.88R
FINDLAY        MOCLDY    58  37  45 N9        29.86R
TOLEDO EXPRESS CLEAR     59  36  42 N10       29.87R
TOLEDO EXEC    CLEAR     58  39  49 NE3       29.88R
LIMA           CLOUDY    56  44  64 N5        29.87R
$$

OHZ009>014-019>023-028>033-038-089-060200-
   NORTHEAST OHIO

CITY           SKY/WX    TMP DP  RH WIND       PRES   REMARKS
CLE-HOPKINS    MOCLDY    52  45  77 NW6       29.86S
CLE-LAKEFRONT  PTCLDY    51  47  86 NW5       29.83S
CUY CO. ARPT   PTCLDY    50  46  87 CALM      29.84R
LORAIN-ELYRIA  CLOUDY    52  44  74 N6        29.85S
ASHTABULA      CLEAR     53  43  68 N6        29.82R
AKRON-CANTON   PTCLDY    54  40  59 N9        29.80R
WOOSTER        CLEAR     50  44  80 N7        29.83R
MANSFIELD      MOCLDY    51  43  74 N7        29.84R
YOUNGSTOWN     PTCLDY    52  42  69 N10       29.78R
$$

OHZ042-051>053-060>062-070>072-077>081-060200-
  SOUTHWEST OHIO

CITY           SKY/WX    TMP DP  RH WIND       PRES   REMARKS
CINC-COVINGTON MOCLDY    53  48  83 W8        29.87R
CINC-LUNKEN    LGT RAIN  57  50  77 NW8       29.87R
HAMILTON       CLOUDY    58  43  57 N3        29.88R
DAYTON         MOCLDY    53  42  66 N7        29.87S
WRIGHT-PAT AFB PTCLDY    56  42  60 NW5       29.86R
DAYTON GENERAL CLOUDY    56  40  55 N6        29.85S
WILMINGTON     CLEAR     54  38  54 N8        29.85R
$$

OHZ036-037-039>041-045>050-054>059-063>069-073>076-082>088-060200-
  CENTRAL AND SOUTHEAST OHIO

CITY           SKY/WX    TMP DP  RH WIND       PRES   REMARKS
COLUMBUS       PTCLDY    55  41  59 N10       29.82R
OSU AIRPORT    CLEAR     55  41  59 N9        29.83R
BOLTON FIELD   CLEAR     56  42  61 N10G20    29.84R
RICKENBACK AFB CLEAR     56  42  57 N14       29.82R
NEWARK         CLEAR     58  41  53 N9        29.81R
MARION         PTCLDY    54  41  61 N12       29.85R
LANCASTER      CLEAR     55  43  63 N8        29.81R
ZANESVILLE     CLEAR     58  40  51 N7        29.79R
NEW PHILLY     CLEAR     55  42  61 N6        29.79R
$$




USA.gov is the U.S. government's official web portal to all federal, state and local government web resources and services.